Location: Newark
(53.4160°N, 2.2641°W)
Time: 23:37:58
(UTC+00:00)

Envisat - Visible Passes

Search period start: 19 September 2019 00:00
Search period end: 29 September 2019 00:00
Orbit: 764 x 766 km, 98.1° (Epoch: 19 September)

Date Brightness Start Highest point End Pass type
(mag) Time Alt. Az. Time Alt. Az. Time Alt. Az.
19 Sep 6.4 20:08:06 10° W 20:09:20 11° W 20:10:32 10° WNW visible
20 Sep 5.8 19:28:10 10° SW 19:31:59 21° W 19:35:50 10° NW visible
21 Sep 4.6 18:50:07 10° SSW 18:54:52 39° W 18:59:39 10° NNW visible
22 Sep 6.1 19:55:26 10° WSW 19:57:52 13° W 20:00:19 10° NW visible
23 Sep 5.4 19:16:25 10° SSW 19:20:36 25° W 19:24:49 10° NW visible
24 Sep 4.2 18:38:38 10° S 18:43:32 48° W 18:48:28 10° NNW visible
25 Sep 5.9 19:43:18 10° SW 19:46:27 16° W 19:49:36 10° NW visible
26 Sep 5.1 19:04:46 10° SSW 19:09:14 30° W 19:13:44 10° NNW visible
27 Sep 3.8 18:27:14 10° S 18:32:14 58° W 18:37:16 10° NNW visible
28 Sep 5.8 19:31:22 10° SW 19:35:01 20° W 19:38:43 10° NW visible
